Simultaneous Nadir Overpasses (SNOs) Predictions

Prediction of SNOs between AQUA and GOES-15 Satellite Orbit:

Table of predicted SNOs for the next 14.0 days since TLE Epoch: 11/21/2015
Index Date Time (AQUA) AQUA Lat,Lon GOES-15 Lat,Lon Distance(km) Time Diff (sec)
1 11/22/2015 22:22:43 0.74,-131.93 -0.02,-135.46 401.28 80
2 11/23/2015 10:43:59 0.34,-137.09 0.00,-135.48 183.35 80
3 11/25/2015 10:31:49 -0.27,-134.14 0.01,-135.48 152.53 80
4 11/25/2015 22:53:13 -0.82,-139.33 0.01,-135.46 441.17 80
5 11/27/2015 10:19:39 -0.90,-131.19 0.02,-135.48 487.94 80
6 11/27/2015 22:41:03 -0.19,-136.38 0.00,-135.45 105.71 80
7 11/29/2015 22:28:53 0.41,-133.42 0.00,-135.45 229.38 80
8 11/30/2015 10:50:08 0.67,-138.59 -0.02,-135.47 354.75 80
9 12/02/2015 10:37:58 -0.00,-135.64 -0.02,-135.46 20.11 80
10 12/04/2015 10:25:47 -0.63,-132.68 -0.02,-135.45 314.63 80
11 12/04/2015 22:47:11 -0.49,-137.87 0.04,-135.41 279.98 80




NCC Satellite Simultaneous Nadir Overpasses (SNOs) Prediction Service
